Weather WX

World > North America > United States > Ohio

Oakfield, Ohio Regional Weather

Lat: 41.41N, Lon: 80.85W
Wx Zone: OHZ023
Feedback

Oakfield, OH Regional Weather

Expires:201906270200;;132420
ASUS41 KCLE 270112
RWRCLE
OHIO REGIONAL WEATHER ROUNDUP
NATIONAL WEATHER SERVICE WILMINGTON, OH
900 PM EDT WED JUN 26 2019

NOTE: "FAIR" INDICATES FEW OR NO CLOUDS BELOW 12,000 FEET WITH NO
SIGNIFICANT WEATHER AND/OR OBSTRUCTIONS TO VISIBILITY.


OHZ009>014-019>023-028>033-038-089-270200-
   NORTHEAST OHIO
  
CITY           SKY/WX    TMP DP  RH WIND       PRES   REMARKS
CLE-HOPKINS    FAIR      83  59  44 CALM      30.09S                  
CLE-LAKEFRONT  FAIR      81  54  39 CALM      30.06S                  
CUY CO. ARPT   PTCLDY    77  61  57 CALM      30.09R                  
LORAIN-ELYRIA  FAIR      79  58  48 CALM      30.08S                  
ASHTABULA      FAIR      72  61  68 CALM      30.09F                  
AKRON-CANTON   FAIR      80  64  58 SW6       30.10S                  
WOOSTER        FAIR      78  66  66 W3        30.11S                  
MANSFIELD      FAIR      79  64  60 CALM      30.11S                  
YOUNGSTOWN     FAIR      78  61  55 N3        30.10R                  
$$
 

SKY/WX - Weather  TMP - Temperature  DP - Dew Point  RH - Relative Humidity
WIND - Wind Direction/Speed PRES - Barometric Pressure VSB - Visibility
WCI - Wind Chill Index E13G22 Wind - East Wind 13 mph/Gusts of 22 mph